| time (UTC) | temp C | wind direction | speed KPH | gust KPH | rain 1hr cm | rain 24hr cm | rain mn cm | humidity % | barometer mb |
| 20260505173043 | 12 | 342 | 3.2 | 8.0 | 0.13 | 1.24 | 1.24 | 94 | 1011.6 |
| 20260505171543 | 12 | 296 | 1.6 | 6.4 | 0.23 | 1.24 | 1.24 | 94 | 1011.7 |
| 20260505170042 | 12 | 333 | 3.2 | 6.4 | 0.25 | 1.24 | 1.24 | 94 | 1011.6 |
| 20260505164552 | 12 | 329 | 3.2 | 6.4 | 0.18 | 1.17 | 1.17 | 94 | 1011.6 |
| 20260505163051 | 12 | 342 | 3.2 | 6.4 | 0.15 | 1.12 | 1.12 | 94 | 1011.7 |
| 20260505161641 | 12 | 339 | 3.2 | 8.0 | 0.05 | 1.02 | 1.02 | 94 | 1011.7 |
| 20260505153040 | 12 | 350 | 1.6 | 6.4 | 0.03 | 0.97 | 0.97 | 94 | 1011.9 |
| 20260505151540 | 12 | 39 | 3.2 | 6.4 | 0.03 | 0.97 | 0.97 | 93 | 1011.9 |
| 20260505124539 | 12 | 55 | 4.8 | 8.0 | 0.03 | 0.94 | 0.94 | 92 | 1012.5 |
| 20260505123038 | 12 | 74 | 1.6 | 8.0 | 0.03 | 0.91 | 0.91 | 92 | 1012.5 |
| 20260505121533 | 12 | 42 | 1.6 | 6.4 | 0.05 | 0.91 | 0.91 | 93 | 1012.4 |
| 20260505120033 | 12 | 5 | 4.8 | 9.7 | 0.08 | 0.91 | 0.91 | 92 | 1012.5 |
| 20260505114531 | 12 | 5 | 3.2 | 8.0 | 0.13 | 0.91 | 0.91 | 92 | 1012.5 |
| 20260505113031 | 12 | 329 | 1.6 | 6.4 | 0.13 | 0.89 | 0.89 | 92 | 1012.6 |
| 20260505111536 | 12 | 44 | 1.6 | 4.8 | 0.13 | 0.89 | 0.89 | 92 | 1012.6 |
| 20260505101527 | 12 | 31 | 6.4 | 14.5 | 0.15 | 0.76 | 0.76 | 91 | 1012.6 |
| 20260505100030 | 13 | 11 | 4.8 | 9.7 | 0.13 | 0.71 | 0.71 | 90 | 1012.6 |
| 20260505094525 | 13 | 342 | 4.8 | 9.7 | 0.10 | 0.69 | 0.69 | 90 | 1012.7 |
| 20260505093025 | 12 | 30 | 4.8 | 14.5 | 0.10 | 0.66 | 0.66 | 89 | 1012.7 |
| 20260505091523 | 13 | 31 | 3.2 | 8.0 | 0.05 | 0.61 | 0.61 | 90 | 1012.7 |
| 20260505090023 | 12 | 40 | 6.4 | 12.9 | 0.05 | 0.61 | 0.61 | 90 | 1012.7 |
| 20260505084523 | 12 | 343 | 4.8 | 9.7 | 0.03 | 0.58 | 0.58 | 91 | 1012.6 |
| 20260505083019 | 12 | 34 | 4.8 | 16.1 | 0.00 | 0.56 | 0.56 | 91 | 1012.4 |
| 20260505081524 | 12 | 360 | 6.4 | 22.5 | 0.00 | 0.56 | 0.56 | 91 | 1012.1 |
| 20260505080015 | 12 | 339 | 8.0 | 16.1 | 0.03 | 0.56 | 0.56 | 91 | 1012.1 |
| 20260505074515 | 12 | 40 | 9.7 | 19.3 | 0.05 | 0.56 | 0.56 | 92 | 1011.9 |
| 20260505073012 | 12 | 27 | 3.2 | 12.9 | 0.15 | 0.56 | 0.56 | 91 | 1012.1 |
| 20260505071526 | 12 | 322 | 6.4 | 17.7 | 0.28 | 0.56 | 0.56 | 91 | 1012.1 |
| 20260505070010 | 11 | 15 | 6.4 | 14.5 | 0.33 | 0.53 | 0.53 | 91 | 1012.2 |
| 20260505064516 | 11 | 346 | 3.2 | 12.9 | 0.33 | 0.51 | 0.51 | 90 | 1012.3 |
| 20260505063009 | 11 | 30 | 4.8 | 9.7 | 0.25 | 0.38 | 0.38 | 89 | 1012.3 |
| 20260505061507 | 11 | 36 | 4.8 | 12.9 | 0.20 | 0.28 | 0.28 | 88 | 1012.1 |
| 20260505060100 | 11 | 11 | 6.4 | 17.7 | 0.18 | 0.23 | 0.23 | 87 | 1012.1 |
| 20260505054559 | 11 | 321 | 3.2 | 16.1 | 0.15 | 0.15 | 0.15 | 86 | 1012.0 |
| 20260505053104 | 12 | 343 | 8.0 | 24.1 | 0.10 | 0.13 | 0.13 | 86 | 1011.6 |
| 20260505051554 | 12 | 360 | 11.3 | 19.3 | 0.05 | 0.08 | 0.08 | 84 | 1011.5 |
| 20260505041546 | 13 | 317 | 0.0 | 4.8 | 0.03 | 0.03 | 0.03 | 82 | 1011.3 |
| 20260505040044 | 13 | 245 | 0.0 | 1.6 | 0.00 | 0.00 | 0.00 | 80 | 1011.4 |
| 20260505034540 | 13 | 210 | 0.0 | 1.6 | 0.00 | 0.00 | 0.00 | 79 | 1011.4 |
| 20260505033043 | 13 | 209 | 0.0 | 3.2 | 0.00 | 0.00 | 0.00 | 77 | 1011.4 |
| 20260505031536 | 13 | 209 | 0.0 | 4.8 | 0.00 | 0.00 | 0.00 | 75 | 1011.4 |
| 20260505030034 | 14 | 48 | 1.6 | 4.8 | 0.00 | 0.00 | 0.00 | 73 | 1011.6 |
| 20260505024532 | 14 | 47 | 0.0 | 1.6 | 0.00 | 0.00 | 0.00 | 73 | 1011.6 |
| 20260505023030 | 14 | 36 | 3.2 | 6.4 | 0.00 | 0.00 | 0.00 | 74 | 1011.8 |
| 20260505021528 | 14 | 47 | 3.2 | 6.4 | 0.00 | 0.00 | 0.00 | 74 | 1012.0 |
| 20260505020026 | 14 | 336 | 3.2 | 6.4 | 0.00 | 0.00 | 0.00 | 73 | 1012.2 |
| 20260505014525 | 14 | 338 | 3.2 | 4.8 | 0.00 | 0.00 | 0.00 | 74 | 1012.4 |
| 20260505013023 | 14 | 304 | 1.6 | 4.8 | 0.00 | 0.00 | 0.00 | 74 | 1012.6 |
| 20260505011521 | 14 | 258 | 0.0 | 3.2 | 0.00 | 0.00 | 0.00 | 74 | 1012.8 |
| 20260505010019 | 14 | 258 | 1.6 | 6.4 | 0.00 | 0.00 | 0.00 | 73 | 1013.0 |
| 20260505004518 | 14 | 236 | 1.6 | 4.8 | 0.00 | 0.00 | 0.00 | 72 | 1013.3 |
| 20260505003013 | 15 | 259 | 4.8 | 8.0 | 0.00 | 0.00 | 0.00 | 72 | 1013.5 |
| 20260505001511 | 15 | 314 | 0.0 | 3.2 | 0.00 | 0.00 | 0.00 | 75 | 1013.9 |
| 20260505000010 | 15 | 232 | 0.0 | 3.2 | 0.00 | 0.00 | 0.00 | 75 | 1014.1 |
| 20260504234508 | 15 | 232 | 0.0 | 1.6 | 0.00 | 0.00 | 0.00 | 74 | 1014.3 |
| 20260504233010 | 15 | 232 | 0.0 | 3.2 | 0.00 | 0.00 | 0.00 | 74 | 1014.4 |
| 20260504231504 | 15 | 232 | 0.0 | 4.8 | 0.00 | 0.00 | 0.00 | 73 | 1014.6 |
| 20260504230005 | 15 | 232 | 0.0 | 0.0 | 0.00 | 0.00 | 0.00 | 74 | 1014.6 |
| 20260504224502 | 15 | 232 | 0.0 | 1.6 | 0.00 | 0.00 | 0.00 | 74 | 1014.8 |
| 20260504223101 | 15 | 232 | 1.6 | 4.8 | 0.00 | 0.00 | 0.00 | 74 | 1014.9 |
| 20260504221559 | 15 | 232 | 0.0 | 0.0 | 0.00 | 0.00 | 0.00 | 73 | 1014.9 |
| 20260504220115 | 15 | 232 | 0.0 | 3.2 | 0.00 | 0.00 | 0.00 | 72 | 1015.1 |
| 20260504214558 | 15 | 232 | 0.0 | 3.2 | 0.00 | 0.00 | 0.00 | 72 | 1015.2 |
| 20260504213101 | 15 | 232 | 0.0 | 0.0 | 0.00 | 0.00 | 0.00 | 71 | 1015.3 |
| 20260504211557 | 15 | 232 | 0.0 | 1.6 | 0.00 | 0.00 | 0.00 | 69 | 1015.4 |
| 20260504210156 | 16 | 232 | 0.0 | 1.6 | 0.00 | 0.00 | 0.00 | 69 | 1015.5 |
| 20260504204555 | 16 | 232 | 0.0 | 3.2 | 0.00 | 0.00 | 0.00 | 68 | 1015.6 |
| 20260504203054 | 16 | 232 | 0.0 | 3.2 | 0.00 | 0.00 | 0.00 | 68 | 1015.6 |
| 20260504201553 | 16 | 232 | 0.0 | 3.2 | 0.00 | 0.00 | 0.00 | 67 | 1015.5 |
| 20260504200056 | 16 | 232 | 0.0 | 3.2 | 0.00 | 0.00 | 0.00 | 66 | 1015.5 |
| 20260504194552 | 16 | 232 | 1.6 | 3.2 | 0.00 | 0.00 | 0.00 | 65 | 1015.3 |
| 20260504193051 | 17 | 232 | 0.0 | 0.0 | 0.00 | 0.00 | 0.00 | 64 | 1015.1 |
| 20260504191556 | 17 | 232 | 0.0 | 3.2 | 0.00 | 0.00 | 0.00 | 62 | 1015.0 |
| 20260504184609 | 18 | 232 | 0.0 | 3.2 | 0.00 | 0.00 | 0.00 | 57 | 1014.8 |
| 20260504183053 | 18 | 232 | 0.0 | 3.2 | 0.00 | 0.00 | 0.00 | 55 | 1014.7 |
| 20260504181549 | 19 | 232 | 0.0 | 3.2 | 0.00 | 0.00 | 0.00 | 55 | 1014.7 |
| 20260504180047 | 19 | 232 | 0.0 | 3.2 | 0.00 | 0.00 | 0.00 | 53 | 1014.6 |
| 20260504174546 | 20 | 232 | 0.0 | 1.6 | 0.00 | 0.00 | 0.00 | 52 | 1014.7 |